K0BL Weather Reports


time (UTC)temp
C
wind
direction
speed
KPH
gust
KPH
rain 1hr
cm
rain 24hr
cm
rain mn
cm
humidity
%
barometer
mb
20260504160436 24 241 4.8 12.9 0.00 0.00 0.00 50 998.8
20260504150422 22 292 4.8 17.7 0.00 0.00 0.00 53 999.5
20260504140919 20 176 4.8 12.9 0.00 0.00 0.00 58 999.7
20260504130417 13 48 3.2 6.4 0.00 0.00 0.00 73 1000.4
20260504110403 6 0 0.0 3.2 0.00 0.00 0.00 99 1001.0
20260504100358 6 0 0.0 3.2 0.00 0.00 0.00 98 1001.5
20260504081842 7 0 0.0 3.2 0.00 0.00 0.00 95 1002.6
20260504081342 7 225 0.0 3.2 0.00 0.00 0.00 95 1002.7
20260504080342 7 341 0.0 1.6 0.00 0.00 0.00 95 1002.8
20260504070336 8 262 0.0 1.6 0.00 0.00 0.00 92 1003.5
20260504050327 10 234 1.6 4.8 0.00 0.00 0.00 84 1004.5
20260504045826 10 0 0.0 3.2 0.00 0.00 0.00 84 1004.6
20260504045326 10 0 0.0 4.8 0.00 0.00 0.00 85 1004.6
20260504044324 10 228 3.2 4.8 0.00 0.00 0.00 83 1004.6
20260504043824 10 4 3.2 6.4 0.00 0.00 0.00 83 1004.6
20260504043324 10 52 1.6 6.4 0.00 0.00 0.00 82 1004.7
20260504042824 10 0 0.0 3.2 0.00 0.00 0.00 82 1004.7
20260504042323 10 0 0.0 1.6 0.00 0.00 0.00 81 1004.8
20260504041824 10 0 0.0 3.2 0.00 0.00 0.00 81 1004.8
20260504041325 11 0 0.0 3.2 0.00 0.00 0.00 80 1004.9
20260504040824 11 0 0.0 3.2 0.00 0.00 0.00 79 1005.0
20260504040324 11 0 0.0 4.8 0.00 0.00 0.00 78 1005.0
20260504035824 11 259 1.6 4.8 0.00 0.00 0.00 77 1005.1
20260504034322 11 112 1.6 4.8 0.00 0.00 0.00 76 1005.3
20260504033822 12 148 1.6 4.8 0.00 0.00 0.00 77 1005.3
20260504033322 12 217 1.6 3.2 0.00 0.00 0.00 76 1005.4
20260504032822 12 0 1.6 4.8 0.00 0.00 0.00 76 1005.4
20260504032322 12 325 1.6 4.8 0.00 0.00 0.00 76 1005.5
20260504031822 12 93 1.6 4.8 0.00 0.00 0.00 74 1005.5
20260504031322 12 275 1.6 4.8 0.00 0.00 0.00 73 1005.5
20260504030823 12 222 0.0 1.6 0.00 0.00 0.00 72 1005.5
20260504030323 13 137 1.6 1.6 0.00 0.00 0.00 72 1005.5
20260504025819 13 44 1.6 3.2 0.00 0.00 0.00 71 1005.4
20260504025320 13 47 1.6 3.2 0.00 0.00 0.00 71 1005.4
20260504024816 13 47 3.2 8.0 0.00 0.00 0.00 71 1005.5
20260504024316 13 224 4.8 9.7 0.00 0.00 0.00 70 1005.5
20260504023816 13 232 6.4 9.7 0.00 0.00 0.00 71 1005.5
20260504023314 14 230 6.4 9.7 0.00 0.00 0.00 68 1005.4
20260504022814 14 221 6.4 9.7 0.00 0.00 0.00 68 1005.3
20260504021814 15 238 4.8 9.7 0.00 0.00 0.00 67 1005.3
20260504021312 15 226 4.8 9.7 0.00 0.00 0.00 65 1005.3
20260504020812 15 224 6.4 9.7 0.00 0.00 0.00 65 1005.3
20260504020312 15 222 4.8 9.7 0.00 0.00 0.00 64 1005.3
20260504015811 15 225 4.8 14.5 0.00 0.00 0.00 65 1005.3
20260504015312 15 225 8.0 14.5 0.00 0.00 0.00 66 1005.3
20260504014812 15 231 9.7 16.1 0.00 0.00 0.00 66 1005.3
20260504014309 16 238 9.7 16.1 0.00 0.00 0.00 65 1005.3
20260504013808 16 241 8.0 16.1 0.00 0.00 0.00 65 1005.2
20260504013306 16 251 6.4 11.3 0.00 0.00 0.00 63 1005.2
20260504012806 17 244 4.8 9.7 0.00 0.00 0.00 59 1005.2
20260504012306 17 237 3.2 9.7 0.00 0.00 0.00 56 1005.2
20260504011806 18 236 1.6 6.4 0.00 0.00 0.00 52 1005.2
20260504011304 18 160 1.6 4.8 0.00 0.00 0.00 49 1005.1
20260504010800 19 201 0.0 4.8 0.00 0.00 0.00 47 1005.1
20260504010300 20 218 1.6 4.8 0.00 0.00 0.00 45 1005.1
20260504005800 20 182 1.6 3.2 0.00 0.00 0.00 43 1005.1
20260504005300 20 189 1.6 3.2 0.00 0.00 0.00 43 1005.1
20260504004800 20 0 1.6 4.8 0.00 0.00 0.00 42 1005.1
20260504004300 21 231 1.6 4.8 0.00 0.00 0.00 41 1005.1
20260504003801 21 257 1.6 3.2 0.00 0.00 0.00 41 1005.1
20260504003300 21 249 1.6 3.2 0.00 0.00 0.00 40 1005.1
20260504002758 21 264 1.6 4.8 0.00 0.00 0.00 39 1005.2
20260504002258 22 226 1.6 4.8 0.00 0.00 0.00 38 1005.2
20260504001258 22 172 3.2 6.4 0.00 0.00 0.00 37 1005.2
20260504000758 22 236 3.2 6.4 0.00 0.00 0.00 37 1005.1
20260504000258 22 309 3.2 6.4 0.00 0.00 0.00 37 1005.2
20260503235758 22 256 3.2 6.4 0.00 0.00 0.00 37 1005.1
20260503235258 22 232 3.2 4.8 0.00 0.00 0.00 38 1005.1
20260503234758 22 261 3.2 4.8 0.00 0.00 0.00 37 1005.1
20260503233758 22 276 3.2 9.7 0.00 0.00 0.00 35 1005.0
20260503233258 23 273 4.8 9.7 0.00 0.00 0.00 34 1005.0
20260503232758 23 321 4.8 9.7 0.00 0.00 0.00 34 1005.1
20260503232259 23 290 3.2 9.7 0.00 0.00 0.00 34 1005.1
20260503231759 23 278 3.2 9.7 0.00 0.00 0.00 35 1005.1
20260503231300 23 302 6.4 16.1 0.00 0.00 0.00 34 1005.1
20260503230757 23 291 6.4 16.1 0.00 0.00 0.00 34 1005.0
20260503225253 23 304 6.4 14.5 0.00 0.00 0.00 35 1005.1
20260503224753 23 295 6.4 16.1 0.00 0.00 0.00 35 1005.2
20260503223253 22 291 4.8 11.3 0.00 0.00 0.00 38 1005.1
20260503222753 22 259 4.8 11.3 0.00 0.00 0.00 39 1005.2
20260503221753 22 235 4.8 12.9 0.00 0.00 0.00 39 1005.2
20260503221253 23 245 4.8 12.9 0.00 0.00 0.00 39 1005.2
20260503220753 23 304 4.8 12.9 0.00 0.00 0.00 39 1005.3
20260503220251 23 247 4.8 9.7 0.00 0.00 0.00 38 1005.2
20260503215751 23 289 6.4 11.3 0.00 0.00 0.00 38 1005.3
20260503215247 23 146 4.8 11.3 0.00 0.00 0.00 37 1005.2
20260503214747 23 278 4.8 14.5 0.00 0.00 0.00 39 1005.2
20260503214248 22 277 4.8 14.5 0.00 0.00 0.00 39 1005.3
20260503213748 22 300 4.8 14.5 0.00 0.00 0.00 39 1005.3
20260503213248 22 233 6.4 14.5 0.00 0.00 0.00 39 1005.4
20260503212748 23 296 6.4 14.5 0.00 0.00 0.00 38 1005.5
20260503211748 23 304 6.4 16.1 0.00 0.00 0.00 38 1005.6
20260503211248 23 271 6.4 16.1 0.00 0.00 0.00 38 1005.6
20260503210748 22 222 3.2 11.3 0.00 0.00 0.00 38 1005.6
20260503210249 22 299 4.8 12.9 0.00 0.00 0.00 41 1005.7
20260503205749 22 295 6.4 12.9 0.00 0.00 0.00 40 1005.8
20260503205249 22 292 3.2 9.7 0.00 0.00 0.00 42 1005.8
20260503204749 22 235 4.8 11.3 0.00 0.00 0.00 42 1005.8
20260503204243 22 251 4.8 16.1 0.00 0.00 0.00 41 1005.9
20260503203242 21 289 4.8 9.7 0.00 0.00 0.00 42 1006.1
20260503202244 21 241 4.8 9.7 0.00 0.00 0.00 44 1006.0
20260503201744 21 282 4.8 12.9 0.00 0.00 0.00 44 1006.2
20260503201244 21 277 6.4 12.9 0.00 0.00 0.00 45 1006.3
20260503200744 21 271 4.8 8.0 0.00 0.00 0.00 45 1006.2
20260503195744 21 264 6.4 12.9 0.00 0.00 0.00 46 1006.3
20260503195245 21 149 6.4 17.7 0.00 0.00 0.00 46 1006.4
20260503194745 21 307 6.4 17.7 0.00 0.00 0.00 45 1006.3
20260503194243 21 235 6.4 17.7 0.00 0.00 0.00 47 1006.6
20260503193743 20 290 4.8 17.7 0.00 0.00 0.00 47 1006.5
20260503192741 20 123 4.8 14.5 0.00 0.00 0.00 50 1006.6
20260503192238 20 320 4.8 14.5 0.00 0.00 0.00 50 1006.5
20260503191738 20 61 4.8 14.5 0.00 0.00 0.00 50 1006.5
20260503191238 20 259 4.8 9.7 0.00 0.00 0.00 50 1006.6
20260503190739 20 316 4.8 11.3 0.00 0.00 0.00 51 1006.7
20260503185738 20 293 6.4 17.7 0.00 0.00 0.00 50 1006.8
20260503184739 19 223 6.4 12.9 0.00 0.00 0.00 52 1006.6
20260503184238 19 219 4.8 6.4 0.00 0.00 0.00 53 1006.2
20260503183236 18 207 4.8 8.0 0.00 0.00 0.00 52 1006.2
20260503182732 18 221 4.8 8.0 0.00 0.00 0.00 52 1006.2
20260503182233 18 224 3.2 6.4 0.00 0.00 0.00 52 1007.0
20260503181730 18 222 4.8 6.4 0.00 0.00 0.00 52 1007.0
20260503181230 18 222 4.8 9.7 0.00 0.00 0.00 52 1007.4
20260503180727 18 237 6.4 11.3 0.00 0.00 0.00 53 1007.0
20260503180227 18 223 6.4 11.3 0.00 0.00 0.00 52 1007.1
20260503175727 18 225 6.4 11.3 0.00 0.00 0.00 52 1007.3
20260503174727 18 222 6.4 11.3 0.00 0.00 0.00 51 1007.0
20260503174227 18 228 6.4 11.3 0.00 0.00 0.00 51 1007.4
20260503173227 18 207 6.4 12.9 0.00 0.00 0.00 50 1007.3
20260503172727 18 227 6.4 11.3 0.00 0.00 0.00 50 1007.2
20260503172227 18 223 6.4 11.3 0.00 0.00 0.00 50 1007.3
20260503171221 18 224 6.4 17.7 0.00 0.00 0.00 50 1007.5
20260503170722 18 222 6.4 20.9 0.00 0.00 0.00 49 1007.5
20260503170222 18 223 8.0 40.2 0.00 0.00 0.00 50 1007.5